Weather History for Dunkirk, NY

Change the Weather History Date:

Sunday, September 29, 2013

  Actual Average Record
Temperature  
Mean Temperature 65 °F -  
Max Temperature 75 °F 67 °F 90 °F (1954)
Min Temperature 57 °F 48 °F 32 °F (2000)
Growing Degree Days 15 (Base 50)    
Moisture  
Dew Point 52 °F    
Average Humidity 67    
Maximum Humidity 93    
Minimum Humidity 50    
Precipitation  
Precipitation 0.00 in - - ()
Sea Level Pressure  
Sea Level Pressure 30.05 in    
Wind  
Wind Speed 16 mph (South)    
Max Wind Speed 23 mph    
Max Gust Speed 37 mph    
Visibility 10 miles    
Events      
Averages and records for this station are not official NWS values.
T = Trace of Precipitation, MM = Missing Value Source: NWS Daily Summary

Daily Weather History Graph

Daily Weather History Graph

Search for Another Location

Airport:

Trip Planner

Search our weather history database for the weather conditions in past years. The results will help you decide how hot, cold, wet, or windy it might be!

Date:

Astronomy

Sep. 29, 2013 Rise Set
Actual Time 7:12 AM EDT 7:01 PM EDT
Civil Twilight 6:44 AM EDT 7:29 PM EDT
Nautical Twilight 6:11 AM EDT 8:02 PM EDT
Astronomical Twilight 5:38 AM EDT 8:35 PM EDT
Moon 1:46 AM EDT (9/29) 4:01 PM EDT (9/29)
Length of Visible Light 12h 45m
Length of Day
11h 49m
Waning Crescent, 27% of the Moon is Illuminated
Sep 29
Waning Crescent
Oct 4
New
Oct 11
First Quarter
Oct 18
Full
Oct 26
Last Quarter

Hourly Weather History & Observations

Time (EDT) Temp. Dew Point Humidity Pressure Visibility Wind Dir Wind Speed Gust Speed Precip Events Conditions
12:53 AM 59.0 °F 48.0 °F 67% 30.14 in 10.0 mi South 11.5 mph 23.0 mph N/A   Clear
1:53 AM 59.0 °F 48.0 °F 67% 30.14 in 10.0 mi South 19.6 mph 26.5 mph N/A   Clear
2:53 AM 59.0 °F 46.9 °F 64% 30.11 in 10.0 mi South 21.9 mph 34.5 mph N/A   Clear
3:53 AM 57.9 °F 46.9 °F 67% 30.09 in 10.0 mi South 23.0 mph 34.5 mph N/A   Clear
4:53 AM 57.9 °F 46.9 °F 67% 30.09 in 10.0 mi South 20.7 mph 34.5 mph N/A   Scattered Clouds
5:53 AM 57.9 °F 46.9 °F 67% 30.08 in 10.0 mi South 20.7 mph 34.5 mph N/A   Mostly Cloudy
6:53 AM 59.0 °F 46.9 °F 64% 30.08 in 10.0 mi South 21.9 mph 36.8 mph N/A   Scattered Clouds
7:53 AM 59.0 °F 46.9 °F 64% 30.09 in 10.0 mi South 21.9 mph 33.4 mph N/A   Scattered Clouds
8:53 AM 60.1 °F 46.9 °F 62% 30.08 in 10.0 mi South 23.0 mph 32.2 mph N/A   Partly Cloudy
9:53 AM 62.1 °F 48.9 °F 62% 30.08 in 10.0 mi South 20.7 mph 34.5 mph N/A   Overcast
10:53 AM 66.0 °F 51.1 °F 59% 30.07 in 10.0 mi South 18.4 mph 24.2 mph N/A   Clear
11:53 AM 69.1 °F 53.1 °F 57% 30.06 in 10.0 mi South 16.1 mph 25.3 mph N/A   Clear
12:53 PM 72.0 °F 54.0 °F 53% 30.05 in 10.0 mi SSW 16.1 mph 24.2 mph N/A   Clear
1:53 PM 73.0 °F 55.0 °F 53% 30.03 in 10.0 mi South 11.5 mph - N/A   Scattered Clouds
2:53 PM 73.9 °F 54.0 °F 50% 30.01 in 10.0 mi South 11.5 mph - N/A   Partly Cloudy
3:53 PM 73.9 °F 54.0 °F 50% 30.00 in 10.0 mi South 12.7 mph - N/A   Clear
4:53 PM 73.0 °F 55.0 °F 53% 29.99 in 10.0 mi SSW 11.5 mph - N/A   Partly Cloudy
5:53 PM 71.1 °F 57.9 °F 63% 30.00 in 10.0 mi SW 3.5 mph - N/A   Mostly Cloudy
6:53 PM 66.9 °F 59.0 °F 76% 30.00 in 10.0 mi SSW 9.2 mph - N/A   Overcast
7:53 PM 63.0 °F 60.1 °F 90% 30.01 in 10.0 mi West 8.1 mph - N/A   Overcast
8:53 PM 61.0 °F 57.9 °F 90% 30.02 in 10.0 mi South 6.9 mph - N/A   Clear
9:53 PM 57.9 °F 55.9 °F 93% 30.02 in 10.0 mi SSE 3.5 mph - N/A   Clear
10:53 PM 57.0 °F 55.0 °F 93% 30.01 in 8.0 mi Calm Calm - N/A   Clear
11:53 PM 63.0 °F 55.0 °F 75% 30.00 in 10.0 mi South 6.9 mph - N/A   Scattered Clouds